Бурсоль

Россия / Алтайский край     53°09′54″N   78°26′59″E
темп.,
°C
ветер,
м/с
пор.,
м/с
влажн.,
%
обл.,
%
осадки,
мм/ч
давл.,
гПа
погр.,
м
22 июня, вт
вт2200:00+11ссз4774100 0.3 1006287
03:00+10сз4779100 0.2 1006307
06:00+10зсз588390 0.4 1007372
09:00+11сз6784100 0.8 1008915
12:00+14ссз7868100 1.8 10091281
15:00+14с71068100 1.3 10111202
18:00+15ссз576186 2.5 10121138
21:00+12зсз347113 0.3 101358
23 июня, ср
ср2300:00+11ссз238597 0.6 1013100
03:00+9з47925 0.3 1013130
06:00+9з358486 0.3 1014165
09:00+14юз3460100 0.0 1013831
12:00+13ю3370100 0.5 1012404
15:00+12ююз2488100 2.4 1010302
18:00+11всв4788100 6.2 1007436
21:00+11в61094100 2.5 1004601
24 июня, чт
чт2400:00+11всв4797100 9.1 1001352
03:00+11с5898100 11.5 998426
06:00+11с91596100 17.6 997915
09:00+10с111694100 4.9 9991002
12:00+10с111694100 7.8 10021095
15:00+11ссз91586100 1.1 1006793
18:00+13ссз7127159 1.3 1008683
21:00+12сз7137572 0.1 1010455
25 июня, пт
пт2500:00+9зсз4118825 0.1 1011205
03:00+8зсз498948 0.0 1011161
06:00+9зсз378568 0.0 1012205
09:00+11з4575100 0.0 1013310
12:00+15з3456100 0.2 10131143
15:00+16з3348100 0.2 10121680
18:00+15сз2260100 0.2 101297
21:00+12св116299 0.0 101310
26 июня, сб
сб2600:00+11вюв116453 0.0 101310
03:00+10всв116756 0.0 101310
06:00+11всв117055 0.0 101327
09:00+15ююз225411 0.0 1013652
12:00+18ююз3445100 0.0 10132208
15:00+17зюз2452100 0.0 10131330
18:00+18юз3447100 0.0 10121352
21:00+15ююз3361100 0.0 101329